BLOCK DM-SL DEB, 46091

Orbit data source: Space-Track

BLOCK DM-SL DEB, 46091 is space debris in GEO originally from a launch on Tue, 24 Dec 2019 UTC launched from the Tyuratam Missile And Space Complex (TTMTR). Debris objects in space refer to the collection of defunct objects orbiting the Earth. Examples of debris include non-operational satellites, rocket bodies, and fragments generated from explosions, collisions, or faulty payload assembly.

Loading next visibility...
Identifier
46091, 2019-095E
Orbit
GEO
Country
Flag of CISCIS
Related business
Manufacturer
Lavochkin
Mission
Spacecraft
Bus & Motor
Unknown
Mass
Unknown
Launch date (UTC)
2019-12-24 (6 years ago)
Launch vehicle
Unknown
Launch site
Tyuratam Missile And Space Complex (TTMTR)
Object type
Payload
Rocket body
Debris
Shape & HBR
Unknown shape, 1.1 m
Radar Cross Section
Medium (>0.1 m² and <1 m²)

Expand to show TLE details & history
Last TLE update: 2 days ago

TLE from 2 days ago
0 BLOCK DM-SL DEB
1 46091U 19095E   25351.46571660  .00000006  00000-0  00000-0 0  9991
2 46091   4.8754  75.7800 0134376 216.6027 142.1854  1.03265255 21866
Epoch: 2025-12-17T11:10Z
TLE epoch observation values (Epoch: 2025-12-17T11:10:37.914Z)
Latitude
-0.00001°
Longitude
-178.50284°
Altitude
35,411.411 km
Speed
3.072 km/s
True Right ascension
05h 01m 57s
True Declination
0° 00' 00"
Sunlit
Object was in daylight at epoch
Visualization orbit readout
Latitude
Unknown
Longitude
Unknown
Altitude
Unknown
Speed
Unknown
Apparent Right ascension
Unknown
Apparent Declination
Unknown
Sunlit
N/A
Visualization observer readout
Local Sidereal Time
16:00:38
Azimuth
Unknown
Elevation
Unknown
Doppler factor
Unknown
Orbital elements
Apogee altitude
35,524.438 km
Perigee altitude
34,413.23 km
Semi-major axis
41,346.971 km
Eccentricity
0.01344
Inclination
4.8754°
RAAN
75.78°
Arg. of periapsis
216.6027°
True anomaly
143.11708°
Mean anomaly
142.1854°
Eccentric anomaly
142.65247°
Mean motion
0.25815 °/min
Orbital period
1,394.52 mins
BSTAR
0
Loading maneuver chart data...
Computing Atmospheric mass density...
Loading historical data...
Loading historical data...
Loading historical data...
Loading historical data...
Loading historical data...
Loading historical data...
Loading historical data...
Other satellites on launch #95 in the year 2019 (2019-12-24 UTC)

Documentation

Showing up to 5 results
|